CW5602 Weather Reports


Display with metric or nautical units.
time (UTC)temp
F
wind
direction
speed
MPH
gust
MPH
rain 1hr
in
rain 24hr
in
rain mn
in
humidity
%
barometer
mb
20260503210703 60 50 1.0 3.0 0.00 0.00 0.00 42 1016.0
20260503210204 60 336 3.0 5.0 0.00 0.00 0.00 40 1016.0
20260503190704 62 348 5.0 12.0 0.00 0.00 0.00 41 1017.2
20260503173704 58 348 5.0 9.0 0.00 0.00 0.00 49 1017.7
20260503170204 54 346 4.0 10.0 0.00 0.00 0.00 57 1018.1
20260503160204 49 287 3.0 8.0 0.00 0.00 0.00 68 1019.3
20260503150703 46 325 2.0 3.0 0.00 0.00 0.00 74 1019.7
20260503140205 42 333 0.0 0.0 0.00 0.00 0.00 83 1019.5
20260503130703 42 335 0.0 3.0 0.00 0.00 0.00 80 1019.2
20260503120203 40 213 0.0 3.0 0.00 0.00 0.00 84 1019.0
20260503110704 39 213 1.0 2.0 0.00 0.00 0.00 89 1018.2
20260503100204 39 213 0.0 2.0 0.00 0.00 0.00 89 1017.5
20260503090204 38 213 0.0 2.0 0.00 0.00 0.00 88 1016.7
20260503050704 42 213 0.0 0.0 0.00 0.00 0.00 82 1015.7
20260503050204 42 213 0.0 3.0 0.00 0.00 0.00 82 1015.8
20260503043203 41 213 2.0 3.0 0.00 0.00 0.00 82 1015.4
20260503040203 41 213 2.0 3.0 0.00 0.00 0.00 80 1015.1
20260503033204 42 213 1.0 3.0 0.00 0.00 0.00 79 1015.1
20260503030203 42 213 0.0 3.0 0.00 0.00 0.00 78 1015.0
20260503023203 43 225 2.0 3.0 0.00 0.00 0.00 77 1014.7
20260503020703 44 225 2.0 3.0 0.00 0.00 0.00 76 1014.4
20260503020204 44 225 2.0 3.0 0.00 0.00 0.00 77 1014.2
20260503013203 45 225 2.0 3.0 0.00 0.00 0.00 73 1013.8
20260503010704 46 225 2.0 3.0 0.00 0.00 0.00 71 1013.5
20260503003704 47 225 3.0 3.0 0.00 0.00 0.00 67 1013.2
20260503003204 47 317 1.0 2.0 0.00 0.00 0.00 66 1013.1
20260503000704 49 317 1.0 3.0 0.00 0.00 0.00 60 1012.8
20260503000204 49 333 2.0 5.0 0.00 0.00 0.00 60 1012.8
20260502233204 50 303 3.0 12.0 0.00 0.00 0.00 55 1012.4
20260502230703 52 28 2.0 5.0 0.00 0.00 0.00 51 1012.0
20260502230203 52 334 5.0 12.0 0.00 0.00 0.00 52 1011.9
20260502223704 53 344 5.0 9.0 0.00 0.00 0.00 50 1011.6
20260502220704 51 195 6.0 10.0 0.00 0.00 0.00 54 1011.3